星链-36752(STARLINK-36752)

导读

STARLINK-36752是美国太空探索技术公司 SpaceX 星链星座的一员,于2026年2月11日发射升空,归属美国。星链项目旨在构建全球卫星互联网星座,为全球范围提供高速低延迟的宽带网络服务,该卫星入轨后将助力扩展星链系统覆盖范围与服务能力。

基本信息
目录编号:
67724
目录名称:
STARLINK-36752
国际标识:
2026-026D
轨道中心:
EARTH
卫星名称:
星链-36752
卫星全名:
星链-36752(STARLINK-36752)
卫星状态:
在轨 (已飞行206 天)
发射日期:
2026-02-11 UTC
国别 :
美国 (US)
星等 :
--
轨道信息
数据来源 国际轨道数据 AOE轨道数据
星历时间 2026-09-05T05:10:11+0800
16小时前
查看轨道信息
2026-09-04T00:00:00+0800
1天前
查看轨道信息
半长轴 6843.718km 6843.557km
偏心率 0.000201 0.0001717
轨道倾角 97.285° 97.287°
近地点辐角 89.369° 80.199°
升交点赤经 299.883° 298.682°
平近点角 270.778° 54.773°
近地点 464.205km 464.244km
远地点 466.957km 466.596km
周期 93.907分钟 93.904分钟
每日圈数 15.334326 15.334867
详细信息
固有亮度:
5
最大亮度:
2.5
卫星平台:
Starlink V1.0
覆盖范围:
全球
运营商:
太空探索技术公司
运营商所在国:
美国
制造商(研发单位):
太空探索技术公司
制造商所在国:
美国
使用方式:
暂无
卫星简介
Starlink 计划是 SpaceX 推出的全球卫星互联网项目,通过发射低轨道卫星,为全球尤其是偏远地区提供高速、低延迟的互联网服务。自 2019 年起,Starlink 已部署数千颗卫星,旨在缩小全球数字鸿沟,推动互联网普及。该项目还为军事、航空等行业提供通信支持,带来广泛经济效益。
2D轨道图
3D轨道图
轨道高度分析图
轨道倾角分析图
轨道综合分析图
查看轨道综合分析图
交会数据列表
事件ID 空间交会对象 最接近时刻(TCA) 交会距离 交会风险概率(CRP) 交会风险指数(CRI) 操作
CDM_260906-090305-815906-772422
2026-09-06T
09:03:17+0000
2.868 km
极远距离
1.40168E-6 低风险 0.38
CDM_260907-101306-608206-772421
2026-09-07T
10:13:38+0000
2.979 km
极远距离
1.348188E-6 低风险 0.38
CDM_260906-024304-865606-772421
2026-09-06T
02:43:59+0000
2.894 km
极远距离
1.010691E-6 低风险 0.35